Flag for United Kingdom Weather past 2 weeks in Newport, Wales, United Kingdom

Now
36 °F

Passing clouds.


Feels Like: 25 °F
Forecast: N/A
Wind: 17 mph from West

Location: Bristol / Lulsgate

Current Time: Jan 29, 2015 at 11:35:39 PM

Latest Report: Jan 29, 2015 at 10:50 PM


Visibility: N/A

Pressure: 28.94 "Hg

Humidity: 81%

Dew point: 30 °F

Location of NewportLocation

Historic Weather in Newport — Graph

°F

Newport temperature yesterday

Maximum temperature yesterday: 48 °F (at 8:20 AM)
Minimum temperature yesterday: 36 °F (at 7:20 PM)
Average temperature yesterday: 41 °F

Past Weeks' High & Low Weather Summary

 TemperatureHumidityPressure
High50 °F (Jan 15, 12:20 AM)100% (Jan 17, 8:50 AM)30.48 "Hg (Jan 17, 8:50 AM)
Low28 °F (Jan 20, 6:50 AM)56% (Jan 19, 1:50 PM)28.91 "Hg (Jan 29, 2:50 PM)
Average38 °F86%29.89 "Hg
* Reported Jan 14 10:20 PM — Jan 29 10:20 PM, Newport, Weather by CustomWeather, © 2014

Note: Actual official high and low records may vary slightly from our data, if they occured in-between our weather recording intervals... More about our weather records

Advertising

Newport weather history for previous 24 hours

 ConditionsComfort  
Time TempWeatherWind HumidityBarometerVisibility
10:20 PM
Jan 29
36 °FPassing clouds.17 mph87%28.97 "HgN/A
9:50 PM36 °FPassing clouds.18 mph87%28.97 "HgN/A
9:20 PM36 °FPassing clouds.16 mph81%28.97 "HgN/A
8:50 PM36 °FPassing clouds.20 mph81%28.97 "HgN/A
8:20 PM36 °FPassing clouds.16 mph81%28.97 "HgN/A
7:50 PM36 °FPassing clouds.17 mph81%28.97 "HgN/A
7:20 PM34 °FPassing clouds.7 mph93%28.94 "HgN/A
6:50 PM34 °FPassing clouds.10 mph87%28.94 "HgN/A
6:20 PM32 °FPassing clouds.10 mph93%28.94 "HgN/A
5:50 PM32 °FPassing clouds.12 mph93%28.94 "HgN/A
5:20 PM32 °FScattered showers. Passing clouds.13 mph93%28.94 "HgN/A
4:50 PM32 °FScattered showers. Scattered clouds.12 mph93%28.94 "Hg6 mi
4:20 PM32 °FSnow flurries. Partly sunny.20 mph93%28.91 "Hg1 mi
3:50 PM36 °FSnow. Scattered clouds.16 mph87%28.91 "HgN/A
3:20 PM36 °FScattered showers. Scattered clouds.18 mph87%28.91 "HgN/A
2:50 PM36 °FLight rain. Partly sunny.18 mph93%28.91 "HgN/A
2:20 PM36 °FScattered showers. Partly sunny.17 mph93%28.94 "HgN/A
1:50 PM36 °FScattered showers. Broken clouds.20 mph93%28.97 "HgN/A
1:20 PM37 °FScattered showers. Broken clouds.26 mph81%28.97 "HgN/A
12:50 PM39 °FScattered showers. Partly sunny.18 mph81%29.00 "HgN/A
12:20 PM37 °FScattered showers. Scattered clouds.14 mph87%29.03 "HgN/A
11:50 AM37 °FScattered showers. Scattered clouds.16 mph87%29.06 "HgN/A
11:20 AM37 °FSprinkles. Partly sunny.21 mph87%29.09 "Hg4 mi
10:50 AM39 °FScattered showers. Scattered clouds.12 mph87%29.09 "HgN/A
10:20 AM39 °FScattered showers. Scattered clouds.15 mph81%29.12 "HgN/A
9:50 AM37 °FScattered showers. Scattered clouds.13 mph87%29.15 "HgN/A
9:20 AM37 °FScattered showers. Scattered clouds.15 mph87%29.15 "HgN/A
8:50 AM36 °FScattered clouds.14 mph93%29.18 "HgN/A
8:20 AM37 °FScattered clouds.13 mph81%29.21 "HgN/A
7:50 AM37 °FPassing clouds.13 mph81%29.21 "HgN/A
7:20 AM36 °FPassing clouds.13 mph87%29.24 "HgN/A
6:50 AM37 °FPartly cloudy.17 mph81%29.27 "HgN/A
6:20 AM37 °FPassing clouds.16 mph87%29.27 "HgN/A
5:50 AM37 °FPassing clouds.21 mph81%29.30 "HgN/A
5:20 AM37 °FClear.17 mph81%29.33 "Hg10 mi
4:50 AM37 °FPassing clouds.21 mph81%29.33 "HgN/A
4:20 AM37 °FPassing clouds.18 mph81%29.36 "HgN/A
3:50 AM37 °FPassing clouds.16 mph81%29.36 "HgN/A
3:20 AM37 °FClear.18 mph81%29.39 "Hg10 mi
2:50 AM37 °FPassing clouds.22 mph81%29.42 "HgN/A
2:20 AM36 °FPassing clouds.15 mph87%29.45 "HgN/A
1:50 AM36 °FPassing clouds.14 mph87%29.45 "HgN/A
1:20 AM37 °FPassing clouds.20 mph81%29.47 "HgN/A
12:50 AM37 °FPassing clouds.15 mph81%29.47 "HgN/A
12:20 AM37 °FPassing clouds.20 mph75%29.50 "HgN/A
11:50 PM
Jan 28
37 °FPassing clouds.16 mph75%29.50 "HgN/A
11:20 PM37 °FPassing clouds.17 mph75%29.53 "HgN/A
Weather by CustomWeather, © 2014

See weather overviewHow to use our weather pages